Regional Weather Roundup
Issued by NWS

Home | Current Version | Previous Version | Text Only | Print | Product List | Glossary Off
Versions: 1 2 3 4 5 6 7 8 9 10 11 12 13 14 15 16 17 18 19 20 21 22 23 24 25 26 27 28 29 30 31 32 33 34 35 36 37 38 39 40 41 42 43 44 45 46 47 48 49 50

000
ASUS45 KBOI 221710
RWRID
WEATHER ROUNDUP FOR IDAHO
NATIONAL WEATHER SERVICE BOISE ID
1100 AM MDT FRI AUG 22 2014

NOTE: "FAIR" INDICATES FEW OR NO CLOUDS BELOW 12000 FEET
WITH NO SIGNIFICANT WEATHER AND/OR OBSTRUCTIONS TO VISIBILITY

IDZ012-014-221800-
SOUTHWEST IDAHO


CITY           SKY/WX    TMP DP  RH WIND       PRES   REMARKS
BOISE          SUNNY     69  35  28 NW10      29.94S
CALDWELL       SUNNY     70  37  30 NW12      29.94F
MOUNTAIN HOME  MOSUNNY   68  52  58 SE14      29.92R
$$

IDZ016-017-221800-
SOUTHCENTRAL IDAHO


CITY           SKY/WX    TMP DP  RH WIND       PRES   REMARKS
BURLEY         CLOUDY    61  55  81 NE8       29.97S
JEROME         CLOUDY    60  55  83 NE16G22   29.97F
TWIN FALLS     CLOUDY    67  58  72 NE10      29.97S
$$

IDZ019>023-221800-
SOUTHEAST IDAHO


CITY           SKY/WX    TMP DP  RH WIND       PRES   REMARKS
IDAHO FALLS    CLOUDY    58  54  86 NW9       30.08R
POCATELLO      LGT RAIN  56  54  93 E12       30.03F
REXBURG        CLOUDY    58  50  75 VRB3      30.09R
$$

IDZ006-010-011-018-031-032-221800-
CENTRAL IDAHO MOUNTAINS


CITY           SKY/WX    TMP DP  RH WIND       PRES   REMARKS
MCCALL         MOSUNNY   56  43  61 CALM      29.99S
HAILEY         TSTM      57  50  77 S7        30.07R
STANLEY          N/A     44  42  93 CALM      30.10F
SALMON         MOSUNNY   63  52  67 NW3       30.00S
CHALLIS        LGT RAIN  55  46  71 N7        30.08R
$$

IDZ002-004-006-007-026-221800-
NORTHERN IDAHO


CITY           SKY/WX    TMP DP  RH WIND       PRES   REMARKS
LEWISTON       MOSUNNY   68  48  48 SE5       29.96S
LOWELL           N/A     69  52  54 CALM      29.93F
COEUR D`ALENE  CLOUDY    59  52  77 N14       30.01S
MULLAN PASS    CLOUDY    52  45  77 VRB5      30.11S
$$


USA.gov is the U.S. government's official web portal to all federal, state and local government web resources and services.